User: anonymous   Login
Location: Unspecified
(0.0000°N, 0.0000°E)
Time: 18:24:15
(UTC+00:00)
Language:

STARLINK-32675 - Orbit

View from above orbital plane
View from above orbital plane
View from above satellite
View from above satellite

Ground track
Ground track

The orbit is defined by the following mean orbital elements,

1 62208U          26145.20362691 +.00000000 +00000-0 +52884-3 0 00008
2 62208  43.0007 198.5659 0001565 270.2485  89.8187 15.27606386    07
Epoch (UTC): 25 May 2026 04:53:13
Eccentricity: 0.0001565
inclination: 43.0007°
perigee height: 482 km
apogee height: 484 km
right ascension of ascending node: 198.5659°
argument of perigee: 270.2485°
revolutions per day: 15.27606386
mean anomaly at epoch: 89.8187°

The dashed part of the orbit path shows where the satellite is in the earth's shadow,  

DLR